Regional Weather Roundup
Issued by NWS Grand Forks, ND

Home | Current Version | Previous Version | Text Only | Print | Product List | Glossary Off
Versions: 1 2 3 4 5 6 7 8 9 10 11 12 13 14 15 16 17 18 19 20 21 22 23 24 25 26 27 28 29 30 31 32 33 34 35 36 37 38 39 40 41 42 43 44 45 46 47 48 49 50

000
ASUS43 KFGF 220631
RWRFGF
PRAIRIE TO PINES  WEATHER ROUNDUP
NATIONAL WEATHER SERVICE EASTERN NORTH DAKOTA/GRAND FORKS ND
100 AM CDT FRI AUG 22 2014

 **SATELLITE DATA USED TO AUGMENT SKY COVER AT AUTOMATED STATIONS**
 *****  WEATHER ACROSS EASTERN NORTH DAKOTA  *****

CITY           SKY/WX    TMP DP  RH WIND       PRES   REMARKS
GRAND FORKS    FAIR      68  66  94 NW6       29.88R
6HR MIN TEMP:  67; 6HR MAX TEMP:  77;

GRAND FRKS AFB MOCLDY    68  68 100 N8        29.90R
GRAND FRKS NWS   N/A     57 N/A N/A N5          N/A
DEVILS LAKE    CLOUDY    66  63  88 N12       29.93R
6HR MIN TEMP:  66; 6HR MAX TEMP:  75;

FARGO          FOG       65  64  97 CALM      29.87S VSB 1/4
WAHPETON ARPT  CLOUDY    68  64  88 CALM      29.88S VSB 1/4
$$

 ***** WEATHER ACROSS CENTRAL AND WESTERN NORTH DAKOTA  *****

CITY           SKY/WX    TMP DP  RH WIND       PRES   REMARKS
BISMARCK       MOCLDY    68  63  84 NE6       29.96R
6HR MIN TEMP:  64; 6HR MAX TEMP:  80;

MINOT          CLOUDY    64  61  90 NW8       29.98S
6HR MIN TEMP:  62; 6HR MAX TEMP:  72;

JAMESTOWN      FAIR      67  65  93 N8        29.91S
6HR MIN TEMP:  66; 6HR MAX TEMP:  78;

MINOT AFB      CLOUDY    64  64 100 N9        29.99R
GARRISON         N/A     64  62  93 N5        29.98S
WILLISTON      LGT RAIN  63  59  87 NE5       30.04R
6HR MIN TEMP:  63; 6HR MAX TEMP:  76;

DICKINSON      LGT RAIN  62  60  93 NE3       30.02R FOG
6HR MIN TEMP:  62; 6HR MAX TEMP:  72; 6HR PCP:  0.25;

HETTINGER      LGT RAIN  61  58  90 NE21G28   29.99F
6HR MIN TEMP:  60; 6HR MAX TEMP:  74; 6HR PCP:  0.06;

$$

 *****  OTHER AIRPORT OBSERVATIONS IN OUR AREA  *****

CITY           SKY/WX    TMP DP  RH WIND       PRES   REMARKS
WALHALLA         N/A     66  66 100 N13       29.94R
GRAFTON AIRPOR CLOUDY    66  66 100 N9        29.90R
VALLEY CITY AR FAIR      66  66 100 NW9       29.91S
CANDO          CLOUDY    64  64 100 N10G17    29.96S FOG
CAVALIER APRT  CLOUDY    68  64  88 N7        29.92R
GWINNER        CLEAR     68  68 100 NW6       29.91R
SHEYENNE NWR     N/A     64  64  99 CALM      29.95S
ROLLA          CLOUDY    61  61 100 N14G20    29.99F FOG
 ***** THE ABOVE OBSERVATIONS ARE NON NWS ARE NOT QUALITY
       CONTROLLED AND MAY MIS-REPORT RAIN FOR SNOW...
$$

  *****  WEATHER ACROSS NORTHERN MINNESOTA  *****

CITY           SKY/WX    TMP DP  RH WIND       PRES   REMARKS
FLAG ISLAND    CLOUDY    66  64  94 CALM      29.91S
WARROAD        CLOUDY    68  64  88 E5        29.92S
ROSEAU         FAIR      66  63  88 E3        29.91S
HALLOCK        RAIN      66  64  94 CALM      29.90S
THF RVR FALLS  MOCLDY    68  66  94 CALM      29.90R
6HR MIN TEMP:  70; 6HR MAX TEMP:  73;

BAUDETTE       CLOUDY    66  63  90 E5        29.91F
6HR MIN TEMP:  66; 6HR MAX TEMP:  68;

WASKISH        CLOUDY    66  64  94 CALM      29.91S
CROOKSTON      CLOUDY    70  70 100 SE3       29.89R
$$
  *****  WEATHER ACROSS CENTRAL AND WEST MINNESOTA  *****

CITY           SKY/WX    TMP DP  RH WIND       PRES   REMARKS
FOSSTON        CLOUDY    64  61  88 CALM      29.91R
BEMIDJI        CLOUDY    67  66  94 SE6       29.91S
PARK RAPIDS    CLOUDY    68  67  96 CALM      29.91R FOG
6HR MIN TEMP:  68; 6HR MAX TEMP:  71;

ELBOW LAKE     FAIR      68  68  99 E5        29.88F
6HR MIN TEMP:  68; 6HR MAX TEMP:  76;

WADENA         FOG       66  66 100 CALM      29.90S VSB 1
DETROIT LAKES  MOCLDY    68  68 100 SE3       29.91S
MOORHEAD       FAIR      70  70 100 CALM      29.88F FOG
FERGUS FALLS   FAIR      68  66  94 CALM      29.88S FOG
MORRIS MN      FOG       68  66  94 CALM      29.87F VSB 1/2
STAPLES        CLOUDY    66  66 100 CALM      29.90S FOG
$$
  *****  WEATHER ELSEWHERE ACROSS MINNESOTA  *****

CITY           SKY/WX    TMP DP  RH WIND       PRES   REMARKS
DULUTH         DRIZZLE   63  61  93 E8        29.91S FOG
6HR MIN TEMP:  63; 6HR MAX TEMP:  63; 6HR PCP: TRACE;

INTRNTL FALLS  CLOUDY    64  60  87 CALM      29.93R
6HR MIN TEMP:  64; 6HR MAX TEMP:  68;

ELY            CLOUDY    63  57  82 E3        29.94F
CLOQUET        CLOUDY    63  61  94 E6        29.91S FOG
WHEATON        FOG       64  64 100 CALM      29.89S VSB 3/4
BRAINERD       CLOUDY    64  64 100 NE5       29.91R FOG
6HR MIN TEMP:  64; 6HR MAX TEMP:  68; 6HR PCP: TRACE;

HIBBING        CLOUDY    66  59  78 NE3       29.92S
6HR MIN TEMP:  66; 6HR MAX TEMP:  70;

ALEXANDRIA     CLOUDY    67  66  97 NE3       29.90F FOG
6HR MIN TEMP:  66; 6HR MAX TEMP:  73;

SAINT CLOUD    MOCLDY    72  70  93 CALM      29.87S FOG
6HR MIN TEMP:  72; 6HR MAX TEMP:  78;

MINNEAPOLIS    MOCLDY    73  72  96 NW7       29.86R
6HR MIN TEMP:  73; 6HR MAX TEMP:  84;

$$

  *****  WEATHER ACROSS SOUTH DAKOTA  *****

CITY           SKY/WX    TMP DP  RH WIND       PRES   REMARKS
SIOUX FALLS    FAIR      69  67  93 CALM      29.90S
6HR MIN TEMP:  69; 6HR MAX TEMP:  84; 6HR PCP: TRACE;

BROOKINGS      NOT AVBL
WATERTOWN      FAIR      67  66  97 NW5       29.92R
6HR MIN TEMP:  67; 6HR MAX TEMP:  80;

HURON          CLEAR     65  63  93 CALM      29.91S
6HR MIN TEMP:  65; 6HR MAX TEMP:  83;

SISSETON         N/A     66  66 100 CALM      29.88S
ABERDEEN       CLEAR     64  63  96 NW7       29.91S
6HR MIN TEMP:  63; 6HR MAX TEMP:  80;

MITCHELL       CLEAR     69  66  90 CALM      29.91S
PIERRE         CLEAR     66  61  84 E6        29.92R
6HR MIN TEMP:  64; 6HR MAX TEMP:  87;

MOBRIDGE       PTCLDY    68  63  84 E9        29.90F
RAPID CITY     PTCLDY    63  58  83 N8        29.99F
6HR MIN TEMP:  62; 6HR MAX TEMP:  80; 6HR PCP: TRACE;

$$

  *****  SOME WEATHER IN NEARBY STATES *****

CITY           SKY/WX    TMP DP  RH WIND       PRES   REMARKS
GLASGOW MT     CLOUDY    60  57  89 E5        30.07S
6HR MIN TEMP:  60; 6HR MAX TEMP:  61; 6HR PCP:  0.22;

GREAT FALLS MT CLOUDY    53  49  86 NE10      30.15S
6HR MIN TEMP:  53; 6HR MAX TEMP:  65;

CHEYENNE WY    MOCLDY    62  45  53 W7        30.20S
6HR MIN TEMP:  61; 6HR MAX TEMP:  73;

SCOTTSBLUFF NE CLOUDY    66  55  67 N6        30.05R
6HR MIN TEMP:  66; 6HR MAX TEMP:  88; 6HR PCP: TRACE;

OMAHA NE       TSTM      78  74  87 E5        29.86F
6HR MIN TEMP:  78; 6HR MAX TEMP:  92; 6HR PCP:  0.27;

DES MOINES IA  FAIR      80  76  87 SE7       29.85F
6HR MIN TEMP:  80; 6HR MAX TEMP:  86;

DAVENPORT IA   FOG       72  71  97 CALM      29.89F VSB 3/4
6HR MIN TEMP:  74; 6HR MAX TEMP:  77;

CHICAGO IL     TSTM      75  70  84 S7        29.92F
6HR MIN TEMP:  74; 6HR MAX TEMP:  76; 6HR PCP:  0.02;

EAU CLAIRE WI  FAIR      73  72  96 SE6       29.86S
6HR MIN TEMP:  73; 6HR MAX TEMP:  78;

LA CROSSE WI   FAIR      76  71  85 S7        29.87F
6HR MIN TEMP:  75; 6HR MAX TEMP:  82;

$$

  *****  SOME NATIONAL WEATHER *****

CITY           SKY/WX    TMP DP  RH WIND       PRES   REMARKS
LA GUARDIA NY  LGT RAIN  68  63  84 SE3       30.01F
6HR MIN TEMP:  64; 6HR MAX TEMP:  75; 6HR PCP:  1.20;

RALEIGH NC     FAIR      76  72  87 CALM      30.04R
6HR MIN TEMP:  75; 6HR MAX TEMP:  80; 6HR PCP: TRACE;

ATLANTA GA     FAIR      76  70  82 NW7       30.12F
6HR MIN TEMP:  76; 6HR MAX TEMP:  80;

NEW ORLEANS LA FAIR      78  74  87 SW5       30.08F
6HR MIN TEMP:  78; 6HR MAX TEMP:  80;

OKLAHOMA CITY  FAIR      82  65  56 S12       29.95S
6HR MIN TEMP:  79; 6HR MAX TEMP:  93;

ALBUQUERQUE NM MOCLDY    75  47  36 SW8       30.12S
6HR MIN TEMP:  75; 6HR MAX TEMP:  87;

SALT LAKE CITY PTCLDY    65  53  65 N8        30.02R
6HR MIN TEMP:  65; 6HR MAX TEMP:  80;

LOS ANGELES CA PTCLDY    69  62  78 W9        29.96S
6HR MIN TEMP:  68; 6HR MAX TEMP:  73;




USA.gov is the U.S. government's official web portal to all federal, state and local government web resources and services.